STARLINK-4189 (52853 NORAD) Tracking and Keplerian Element Data

This shows tracking and keplerian element data for the satellite.

Feedback or suggestion? Click here.




ElementValue
Catalog52853
NameSTARLINK-4189
Epoch Orbit130
Epoch Day270.00001157
Epoch Year2022
RAAN279.0816
Inclination53.214
Eccentricity0.0002
Argument of Perigee44.581
Mean Anonmoly270.073
Mean Motion15.08813694
Decay Rate0.00035118
L11 52853U 22062Z 22270.00001157 .00035118 00000+0 22152-2 0 9993
L22 52853 53.2140 279.0816 0002000 44.5810 270.0730 15.08813694 1305

Live tracking and technical data element details for STARLINK-4189 (NORAD 52853). STARLINK-4189 can be tracked NOW for your location showing map with azimuth and elevation plus other details from your city location.

Track the satellite on the map from your city or location and see movement details for azimuth, elevation, latitude, longitude, range, height, and movement on the map or in text.







IsCatalogInMostPopularTable: catalog: 52853, numindb: 6
Update: records affected: 1



GetName: 52853 STARLINK-4189

Hit Count: updated at: Thu, 06 Oct 2022 04:46:35 GMT